Location: ?????????
(54.7630°N, 39.4991°E)
Time: 18:20:20
(UTC+00:00)

ATLAS 3B R/B - Pass Details

Date: 14 April 2026
Orbit: 937 x 1257 km, 63.8° (Epoch: 16 May)

Event Time Altitude Azimuth Distance (km) Brightness Sun altitude
Rises 21:41:48 0° 305° (NW) 4,216 6.2 -25.4°
Reaches altitude 10° 21:44:40 10° 309° (NW) 3,247 5.6 -25.4°
Maximum altitude 21:52:32 65° 31° (NNE) 1,347 3.3 -25.3°
Drops below altitude 10° 22:00:05 10° 113° (ESE) 3,118 5.0 -25.1°
Sets 22:02:46 0° 116° (ESE) 4,040 5.6 -25.0°
